EW5191 Weather Reports


Display with metric or nautical units.
time (UTC)temp
F
wind
direction
speed
MPH
gust
MPH
rain 1hr
in
rain 24hr
in
rain mn
in
humidity
%
barometer
mb
20260506043022 38 290 1.0 9.0 0.00 0.03 0.03 60 1019.8
20260506041520 38 275 3.0 8.0 0.00 0.03 0.03 61 1019.7
20260506034537 39 286 3.0 5.0 0.00 0.03 0.03 59 1019.4
20260506033012 40 331 2.0 8.0 0.00 0.03 0.03 45 1019.3
20260506031510 41 332 4.0 7.0 0.00 0.03 0.03 45 1019.0
20260506024509 42 348 5.0 11.0 0.00 0.03 0.03 44 1018.2
20260506023005 43 334 7.0 14.0 0.00 0.03 0.03 44 1017.6
20260506021504 43 341 9.0 14.0 0.00 0.03 0.03 43 1017.4
20260506014601 44 334 13.0 18.0 0.00 0.03 0.03 41 1016.7
20260506014502 44 318 13.0 18.0 0.00 0.03 0.03 41 1016.7
20260506013059 45 329 13.0 19.0 0.00 0.03 0.03 41 1016.6
20260506011617 44 325 13.0 21.0 0.00 0.03 0.03 43 1016.3
20260506004624 43 243 11.0 15.0 0.00 0.03 0.03 59 1015.8
20260506003108 43 286 8.0 12.0 0.00 0.03 0.03 53 1015.8
20260506001556 43 284 7.0 14.0 0.00 0.03 0.03 51 1015.8
20260505234622 44 320 6.0 14.0 0.00 0.03 0.03 50 1015.8
20260505233052 44 306 10.0 24.0 0.00 0.03 0.03 48 1015.5
20260505231650 43 278 11.0 19.0 0.00 0.03 0.03 58 1015.5
20260505224547 44 239 6.0 14.0 0.00 0.03 0.03 51 1014.8
20260505223046 44 287 7.0 12.0 0.00 0.03 0.03 47 1014.6
20260505221546 45 293 15.0 21.0 0.00 0.03 0.03 46 1014.4
20260505214544 47 300 12.0 18.0 0.00 0.03 0.03 41 1014.0
20260505213044 47 307 15.0 22.0 0.00 0.03 0.03 40 1014.0
20260505211548 46 313 4.0 19.0 0.00 0.03 0.03 40 1013.9
20260505204642 47 334 12.0 23.0 0.00 0.03 0.03 38 1013.9
20260505203042 48 324 14.0 29.0 0.00 0.03 0.03 38 1013.9
20260505201541 48 5 7.0 22.0 0.00 0.03 0.03 37 1013.8
20260505194544 49 33 6.0 15.0 0.00 0.03 0.03 38 1013.8
20260505193045 48 337 5.0 14.0 0.00 0.03 0.03 41 1014.0
20260505191551 47 346 7.0 17.0 0.00 0.03 0.03 42 1014.2
20260505184538 47 324 18.0 28.0 0.00 0.03 0.03 43 1014.3
20260505183037 48 331 11.0 21.0 0.00 0.03 0.03 38 1014.2
20260505181537 49 339 13.0 18.0 0.00 0.03 0.03 38 1014.2
20260505174544 47 7 8.0 16.0 0.00 0.03 0.03 37 1014.5
20260505173035 47 324 13.0 22.0 0.00 0.03 0.03 38 1014.6
20260505171535 47 353 10.0 18.0 0.00 0.03 0.03 38 1014.7
20260505164533 46 335 10.0 20.0 0.00 0.03 0.03 40 1014.8
20260505163035 47 336 12.0 20.0 0.00 0.03 0.03 39 1014.8
20260505161531 46 349 10.0 19.0 0.00 0.03 0.03 39 1014.8
20260505153034 45 340 11.0 20.0 0.00 0.03 0.03 45 1014.9
20260505151530 45 351 9.0 19.0 0.00 0.03 0.03 44 1014.8
20260505124518 42 2 3.0 6.0 0.00 0.03 0.03 62 1014.4
20260505123017 42 323 2.0 8.0 0.00 0.03 0.03 63 1014.3
20260505121516 42 341 4.0 8.0 0.00 0.03 0.03 64 1014.3
20260505114515 41 321 0.0 0.0 0.00 0.03 0.03 72 1014.1
20260505113018 41 321 0.0 1.0 0.00 0.03 0.03 75 1014.1
20260505111514 42 321 0.0 0.0 0.00 0.03 0.03 72 1014.1
20260505101514 42 14 0.0 2.0 0.00 0.03 0.03 71 1014.2
20260505094510 42 9 0.0 3.0 0.00 0.03 0.03 73 1014.1
20260505093010 42 333 1.0 2.0 0.00 0.03 0.03 74 1014.3
20260505091508 41 282 0.0 2.0 0.00 0.03 0.03 80 1014.3
20260505084515 41 267 1.0 2.0 0.00 0.03 0.03 85 1014.5
20260505083013 41 265 0.0 2.0 0.00 0.03 0.03 85 1014.5
20260505081504 41 213 3.0 10.0 0.01 0.03 0.03 84 1014.6
20260505074559 42 170 4.0 7.0 0.02 0.03 0.03 80 1014.2
20260505073106 42 130 4.0 6.0 0.03 0.03 0.03 79 1014.2
20260505071555 42 145 0.0 7.0 0.02 0.02 0.02 76 1014.5
20260505064600 43 33 8.0 14.0 0.01 0.01 0.01 70 1014.4
20260505063052 44 3 2.0 14.0 0.00 0.00 0.00 67 1014.2
20260505061544 46 16 5.0 8.0 0.00 0.00 0.00 60 1013.9
20260505060142 47 3 1.0 7.0 0.00 0.00 0.00 57 1013.5
20260505054543 46 251 2.0 6.0 0.00 0.00 0.00 56 1013.4
20260505053040 46 218 1.0 3.0 0.00 0.00 0.00 61 1013.3
20260505051540 46 260 2.0 4.0 0.00 0.00 0.00 58 1013.2
20260505050140 47 352 12.0 20.0 0.00 0.00 0.00 57 1013.6